Location: Bailleul
(50.3375°N, 2.8513°E)
Time: 03:06:53
(UTC+00:00)

Cosmos 1980 - Pass Details

Date: 26 October 2021
Orbit: 839 x 847 km, 71.0° (Epoch: 01 December)

Event Time Altitude Azimuth Distance (km) Brightness Sun altitude
Exits shadow 02:54:31 - 347° (NNW) 2,668 6.4 -34.3°
Reaches altitude 10° 02:55:26 10° 354° (N) 2,471 6.3 -34.1°
Maximum altitude 02:58:37 15° 29° (NNE) 2,132 6.3 -33.7°
Drops below altitude 10° 03:01:48 10° 63° (ENE) 2,470 7.0 -33.2°
Sets 03:05:25 0° 86° (E) 3,404 7.8 -32.7°
